Regional Weather Roundup
Issued by NWS Pendleton, OR

Home | Current Version | Previous Version | Text Only | Print | Product List | Glossary On
Versions: 1 2 3 4 5 6 7 8 9 10 11 12 13 14 15 16 17 18 19 20 21 22 23 24 25 26 27 28 29 30 31 32 33 34 35 36 37 38 39 40 41 42 43 44 45 46 47 48 49 50
266
ASUS46 KPDT 010725
RWRPDT
PENDLETON REGIONAL WEATHER ROUNDUP
NATIONAL WEATHER SERVICE PENDLETON OREGON
1200 AM PDT WED JUN 1 2016

NOTE: FAIR INDICATES FEW OR NO CLOUDS BELOW 12,000 FEET WITH NO
SIGNIFICANT WEATHER AND/OR OBSTRUCTIONS TO VISIBILITY.

# INDICATES UNOFFICIAL STATION AND DATA

WAZ520-010810-
EAST SLOPES OF WASHINGTON CASCADES

CITY            SKY/WX      TMP DP  RH  WIND    PRES   REMARKS
#CLE ELUM HS    N/A         55  43  64  CALM    29.93
#CLE ELUM 2NW   N/A         54  41  61  CALM    N/A
#GLENWOOD       N/A         48  44  86  CALM    29.94
#MANASTASH CYN  N/A         56  39  53  CALM    29.99F
#NELSON 3SW     N/A         55  46  72  CALM    30.11S
#NILE           N/A         55  46  72  CALM    29.22F
#RONALD 2NW     N/A         59  N/A N/A CALM    29.88S
#TEANAWAY 4NE   N/A         55  44  66  CALM    N/A
#TROUT LAKE 1NE N/A         55  43  64  CALM    29.93S
#TROUT LAKE 1E  N/A         51  45  80  CALM    29.96S
$$

WAZ521-010810-
SIMCOE HIGHLANDS

CITY            SKY/WX      TMP DP  RH  WIND    PRES   REMARKS
#CENTERVILLE 1SWN/A         55  36  49  CALM    29.88S
#GOLDENDALE 1NE N/A         59  24  26  N2      N/A
#GOLDENDALE 4W  N/A         58  46  64  CALM    29.99F
#GOODNOE HILLS  N/A         68  36  31  NE3     29.85F
#LYLE 6NE       N/A         65  39  38  N1      29.87F
$$

WAZ026-010810-
KITTITAS VALLEY

CITY            SKY/WX      TMP DP  RH  WIND    PRES   REMARKS
ELLENSBURG AP   CLOUDY      62  42  48  W3      29.96F
#ELLENSBURG CWU N/A         61  46  58  CALM    29.86
#ELLENSBURG 3NE N/A         56  47  72  CALM    29.96F
#ELLENSBURG     N/A         64  50  60  W1      N/A
#ELLENSBURG 13S N/A         64  47  54  CALM    N/A
#KITTITAS 4N    N/A         61  39  44  E5      30.01F
#KITTITAS 3S    N/A         54  48  80  CALM    29.90F
#THORP 6N       N/A         60  39  46  CALM    29.94S
$$

WAZ027-010810-
YAKIMA VALLEY

CITY            SKY/WX      TMP DP  RH  WIND    PRES   REMARKS
SUNNYSIDE AP    N/A         56  44  64  CALM    29.93F
YAKIMA AIRPORT  CLOUDY      62  44  52  W5      29.95F
YAKIMA-VAGABOND MOCLEAR     63  33  32  N1      29.93F
#DONALD 2NE     N/A         68   7   9  CALM    28.78F
#GRANDVIEW      N/A         60  41  49  CALM    29.91F
#MABTON         N/A         60  45  58  CALM    29.92F
#NACHES 2SW     N/A         60  43  53  CALM    29.99S
#TERRACE HTS    N/A         62  40  44  CALM    29.88S
#TOPPENISH      N/A         63  45  52  CALM    29.83
#WEST VALLEY    N/A         61  44  53  CALM    29.90F
#W YAKIMA       N/A         66  42  42  W2      29.90F
#WHITE SWAN 5E  N/A         58  44  60  W2      29.91
#WILEY CITY 3W  N/A         61  37  41  CALM    29.93S
$$

WAZ028-010810-
LOWER COLUMBIA BASIN...WASHINGTON

CITY            SKY/WX      TMP DP  RH  WIND    PRES   REMARKS
HANFORD         CLOUDY      68  33  27  SW5     29.92S
PASCO           MOCLDY      56  50  80  N6      29.92F
PROSSER AWOS    N/A         55  45  69  SW1     29.95F
RICHLAND AWOS   MOCLDY      59  51  75  W3      29.91F
#BENTON CITY    N/A         63  41  44  CALM    29.81F
#CONNELL 5N     N/A         59  42  53  NE1     29.91F
#CONNELL 5NW    N/A         57  43  59  CALM    29.87
#ELTOPIA 6NW    N/A         62  46  56  CALM    28.90F
#KAHLOTUS       N/A         62  43  50  S5      29.91S
#KENNEWICK 3S   N/A         63  41  44  CALM    29.90F
#PATERSON       N/A         66  45  47  CALM    29.88F
#SAGEMOOR 2W    N/A         65  42  43  N1      29.75F
#TOUCHET 2S     N/A         49  44  83  CALM    29.88
#WEST PASCO     N/A         62  47  58  CALM    29.96F
$$

WAZ029-010810-
FOOTHILLS OF THE BLUES...WASHINGTON

CITY            SKY/WX      TMP DP  RH  WIND    PRES   REMARKS
WALLA WALLA AP  PTCLDY      58  44  60  E3      29.93F
#CLYDE 6NW      N/A         60  42  51  E2      29.89F
#DAYTON SCHOOL  N/A         54  39  57  CALM    29.96
#LOWDEN 2SE     N/A         51  46  83  E1      29.88F
#PLEASANT VIEW 1N/A         63  40  43  N1      29.93F
#PRESCOTT       N/A         55  46  72  CALM    29.88F
#SUDBURY        N/A         62  N/A N/A CALM    N/A
#WHITMAN COLLEGEN/A         63  47  56  E2      29.93F
#WAITSBURG 5S   N/A         54  43  66  N1      29.99F
#WAITSBURG 8N   N/A         61  15  16  E3      29.76F
#WALLA WALLA U  N/A         61  47  60  CALM    29.89F
#WHITMAN MISSIONN/A         54  49  83  CALM    29.91S
$$

WAZ030-010810-
BLUE MOUNTAINS...WASHINGTON

CITY            SKY/WX      TMP DP  RH  WIND    PRES   REMARKS
#DIXIE 5SE      N/A         66  35  32  N3      29.93F
$$

ORZ009-041-WAZ024-010810-
COLUMBIA RIVER GORGE

CITY            SKY/WX      TMP DP  RH  WIND    PRES   REMARKS
HOOD RIVER AP   PTCLDY      61  46  58  CALM    29.94S
THE DALLES AP   MOCLDY      66  39  37  N5      29.91S
#ARLINGTON AIRPON/A         67  38  34  NE3     29.91S
#CELILO DOT     N/A         69  40  35  S1      N/A
#LYLE           N/A         68  41  37  NE3     29.91
#MARYHILL 2W    N/A         69  39  33  CALM    N/A
#MOSIER 1S      N/A         64  26  23  CALM    29.91S
#MURDOCK        N/A         66  43  43  N6      29.87S
#RUFUS DOT      N/A         67  42  40  S8      N/A
#SMITHVILLE     N/A         60  40  47  NE2     29.85R

$$

ORZ510-010810-
NORTH CENTRAL OREGON

CITY            SKY/WX      TMP DP  RH  WIND    PRES   REMARKS
#ANTELOPE       N/A         59  38  45  NE1     29.77F
#CHENOWITH 1W   N/A         67  33  28  E2      N/A
#COW CYN RST AREN/A         66  N/A N/A N5      N/A
#DUFUR 9E       N/A         71  35  27  SE7     29.94F
#GRASS VALLEY   N/A         49  41  74  S1      N/A
#GRASS VALLEY 1SN/A         59  37  44  CALM    29.93F
#KENT DOT       N/A         61  28  28  N6      N/A
#MAUPIN SCHOOL  N/A         66  41  40  CALM    29.98S
#MORO SCHOOL    N/A         52  45  77  CALM    29.97F
#SHANIKO 4NW    N/A         62  -48  1  E8      30.04F
#TYGH VALLEY 2NEN/A         60  40  47  CALM    29.90S
#WAPANITIA AIRPON/A         60  39  46  W1      29.93S
#WASCO DOT      N/A         55  39  55  E2      N/A
#WASCO AIRPORT  N/A         63  34  34  E2      N/A
#WASCO 5NE      N/A         49  41  74  CALM    29.91F
$$

ORZ511-010810-
CENTRAL OREGON

CITY            SKY/WX      TMP DP  RH  WIND    PRES   REMARKS
BEND AIRPORT    CLEAR       63  32  31  W8      30.03S
MADRAS AIRPORT  PTCLDY      61  41  48  NW3     30.01S
PRINEVILLE AP   CLEAR       55  37  51  CALM    30.02S
REDMOND AIRPORT CLEAR       62  33  34  W7      30.02R
#ASHWOOD SCHOOL N/A         59  38  45  CALM    29.96S
#BEND 1SW       N/A         51  39  63  NE1     N/A
#BEND-AWBREY    N/A         61  36  39  NW1     29.91S
#BEND-KIM LN    N/A         60  36  41  CALM    30.02S
#CULVER         N/A         58  39  49  CALM    29.88S
#CULVER 8W      N/A         61  33  35  CALM    30.00F
#LAKE BILLY CHINN/A         63  N/A N/A CALM    30.06F
#MADRAS 4S      N/A         56  13  18  S5      30.06S
#POWELL BUTTE 3EN/A         56  37  49  SE1     N/A
#POWELL BUTTE   N/A         61  36  39  SW5     29.90S
#PRINEVILLE 3N  N/A         54  41  61  E1      29.91S

$$


ORZ509-010810-
EAST SLOPES OF OREGON CASCADES

CITY            SKY/WX      TMP DP  RH  WIND    PRES   REMARKS
SISTERS AWOS    N/A         52  37  56  CALM    30.01F
#BLUE BOX PASS  N/A         57  N/A N/A N5      N/A
#CAMP SHERMAN   N/A         48  36  63  CALM    29.98S
#LA PINE DOT    N/A         57  28  33  NW3     N/A
#LA PINE 4NW    N/A         49  39  68  CALM    29.96S
#LAVA BUTTE DOT N/A         51  31  46  CALM    N/A
#SISTERS AIRPOR N/A         52  44  74  CALM    30.17S
#SISTERS ODOT   N/A         51  N/A N/A CALM    N/A
#SISTERS 1NW    N/A         53  35  50  N6      N/A
#SISTERS 3N     N/A         48  31  51  CALM    30.03S
#SUNRIVER       N/A         52  40  63  CALM    29.94F
#TUMALO 3W      N/A         63  33  32  W6      29.78
#WANOGA BUTTE D N/A         55  27  34  N2      N/A

$$

ORZ044-010810-
LOWER COLUMBIA BASIN...OREGON

CITY            SKY/WX      TMP DP  RH  WIND    PRES   REMARKS
HERMISTON       PTCLDY      59  44  57  SE3     29.91F
#BOARDMAN SCHOOLN/A         58  47  67  CALM    29.91S
#ECHO 8SW       N/A         53  45  74  SW1     29.92F
#I-84 EX 198 DOTN/A         64  41  43  NE9     N/A
#UMATILLA SCHOOLN/A         59  52  78  CALM    29.96F
#UMATILLA       N/A         62  44  52  CALM    29.83S
$$

ORZ507-010810-
NORTHERN FOOTHILLS OF THE BLUES

CITY            SKY/WX      TMP DP  RH  WIND    PRES   REMARKS
PENDLETON AIRPT PTCLDY      56  40  55  E9      29.94F
#ADAMS 3WNW     N/A         48  42  80  CALM    29.92S
#ATHENA         N/A         48  41  77  CALM    29.94F
#CAYUSE         N/A         59  46  62  E6      29.90S
#HELIX SCHOOL   N/A         51  42  71  CALM    29.92S
#HELIX 3N       N/A         56  41  57  N3      29.93F
#HOLDMAN 5SE    N/A         51  43  74  CALM    29.93F
#HOLDMAN 6E     N/A         59  41  51  CALM    29.71F
#M-F GROVE ELEM N/A         60  41  49  CALM    29.91F
#M-FREEWATER 5SEN/A         62  44  52  N1      29.93F
#PENDLETON DNTN N/A         57  37  47  E3      29.95F
#PDT AQUATIC CTRN/A         58  36  44  CALM    29.99S
#PDT SUNRIDGE   N/A         52  43  71  CALM    29.95
#PENDLETON 7NW  N/A         54  41  61  CALM    31.98S
#PILOT ROCK 1S  N/A         62  42  48  SE7     29.96F
#PILOT ROCK     N/A         57  40  53  SW3     29.98F
#TUTUILLA       N/A         46  41  83  CALM    29.93F
#UMAPINE 2E     N/A         54  47  77  CALM    29.88F
#WESTON SCHOOL  N/A         58  41  53  CALM    29.84

$$

ORZ508-010810-
SOUTHERN FOOTHILLS OF THE BLUES

CITY            SKY/WX      TMP DP  RH  WIND    PRES   REMARKS
#AJAX           N/A         66  30  26  CALM    27.73F
#CONDON SCHOOL  N/A         61  38  42  NE1     29.96F
#CONDON 5W      N/A         62  33  34  E6      29.98F
#FOSSIL SCHOOL  N/A         53  40  61  CALM    29.95F
#HEPPNER EOC    N/A         59  40  49  E5      29.84F
#HEPPNER 4NE    N/A         60  41  49  S7      29.91F
#LEXINGTON 2SE  N/A         60  42  51  E1      29.92F
#OLEX 4N        N/A         58  39  49  S1      29.92F
#RUGGS 5NE      N/A         54  36  50  SE1     30.17
#RUGGS 2SW      N/A         59  39  47  SW10    29.92F

$$

ORZ502-503-010810-
BLUE MOUNTAINS

CITY            SKY/WX      TMP DP  RH  WIND    PRES   REMARKS
MEACHAM         PTCLDY      45  39  79  CALM    30.05F
#BATTLE MTN DOT N/A         54  46  74  N6      N/A
#CUTSFORTH PARK N/A         46  35  65  CALM    29.84F
#HARDMAN 10S    N/A         61  34  36  N5      30.22S
#LADD CREEK ODOTN/A         52  39  61  S2      N/A
#LONG CREEK HS  N/A         50  41  71  CALM    N/A
#N POWDER DOT   N/A         52  42  69  N2      N/A
#PIKES PEAK     N/A         66  36  33  S7      27.99S
#TOLLGATE       N/A         51  36  56  CALM    29.95F
#TROY SCHOOL    N/A         53  45  74  CALM    29.82
#UKIAH          N/A         45  41  86  CALM    29.91S
#WESTON 4E      N/A         59  41  51  E5      29.88F
$$

ORZ505-010810-
JOHN DAY BASIN

CITY            SKY/WX      TMP DP  RH  WIND    PRES   REMARKS
JOHN DAY        PTCLDY      59  33  37  E5      30.04S
#DAYVILLE SCHOOLN/A         62  33  34  CALM    29.96S
#MITCHELL       N/A         56  40  55  CALM    30.16
#MITCHELL 8NW   N/A         65  34  31  CALM    30.08F
#MONUMENT HS    N/A         60  41  49  CALM    29.90S
#MT. VERNON 5SE N/A         57  30  35  CALM    30.00F
#SPRAY SCHOOL   N/A         59  N/A N/A CALM    N/A
#WINLOCK        N/A         N/A N/A N/A CALM    29.98S
$$

ORZ506-010810-
OCHOCO AND JOHN DAY HIGHLANDS

CITY            SKY/WX      TMP DP  RH  WIND    PRES   REMARKS
#HORSE RIDGE DO N/A         50  32  50  SE3     N/A
#KEYES SMT DOT  N/A         60  35  39  E3      N/A
#PAULINA SCHOOL N/A         56  33  42  SW1     N/A
#PINE MTN OBS   N/A         54  31  41  NW3     N/A
#PRAIRIE CITY   N/A         50  38  63  CALM    30.17S
#SENECA         N/A         48  N/A N/A CALM    N/A
#SENECA 9NW     N/A         43  32  65  CALM    29.95S
$$

ORZ049-010810-
GRANDE RONDE VALLEY

CITY            SKY/WX      TMP DP  RH  WIND    PRES   REMARKS
LA GRANDE       PTCLDY      54  34  47  NW5     30.01S
#COVE           N/A         54  40  59  S3      30.05S
#COVE SCHOOL    N/A         57  38  49  CALM    30.04R
#COVE 6NW       N/A         47  40  76  CALM    29.90
#ELGIN 3N       N/A         52  37  56  CALM    30.00S
#ELGIN 1E       N/A         53  42  66  CALM    N/A
#ISLAND CITY 4N N/A         62  49  62  CALM    29.94F
#LADD CYN DOT   N/A         56  39  53  SE16    N/A
#UNION 1S       N/A         54  40  59  CALM    29.86S
$$

ORZ050-010810-
WALLOWA COUNTY

CITY            SKY/WX      TMP DP  RH  WIND    PRES   REMARKS
JOSEPH AIRPORT  PTCLDY      48  36  63  S5      N/A
#ENTERPRISE AP  N/A         49  29  46  CALM    29.99
#ENTERPRISE HS  N/A         48  41  77  CALM    30.06
#IMNAHA SCHOOL  N/A         54  45  71  S1      30.02S
#IMNAHA 10S     N/A         54  42  64  SW5     30.03F
#JOSEPH 3N      N/A         43  35  73  CALM    30.09S
#JOSEPH 3W      N/A         51  37  59  SW3     29.92F
#LOSTINE        N/A         50  39  66  CALM    29.77
#LOSTINE 3SE    N/A         49  39  68  S3      30.05F
#MT HOWARD 8000 N/A         50  11  20  CALM    30.26
#PROMISE 1S     N/A         49  40  71  CALM    30.06
#WALLOWA SCHOOL N/A         48  41  77  CALM    30.01



$$



USA.gov is the U.S. government's official web portal to all federal, state and local government web resources and services.